[ ตารางข้อมูล ] [ Min-Max ] [ วันนี้4 ] [ วันนี้2 ] [ เทียบ3วัน A ] [ เทียบ4วัน B ]   

วันนี้2   [ ◀ ช่วงเก่ากว่า ] [ ช่วงที่ 311 ] [ ช่วงใหม่กว่า ▶ ] [ ล่าสุด ]    [ 3 ชั่วโมง ] [ 6 ชั่วโมง ] [ 12 ชั่วโมง ] [ 24 ชั่วโมง ]   วันนี้2

อุณภูมิตู้ Knockdown4529  ราย 3 ชั่วโมง  ที่วัดได้ ในช่วงวันเวลา 31/03/2026 (14:37) ถึง 31/03/2026 (17:37) 
ความชื้นในตู้ Knockdown4529  ราย 3 ชั่วโมง  ที่วัดได้ ในช่วงวันเวลา 31/03/2026 (14:37) ถึง 31/03/2026 (17:37) 

 
DS18B20SHTC3 
IDDate d/m/Y & Timedata1
สูง
data2
ต่ำ
data3
นอก
temp
pcb
hum
pcb
Time
 7565  31/03/2026 17:36:42  31.3  31.3  29.9  31.2  71.2  17:36 
 7564  31/03/2026 17:32:01  31.3  31.3  30.0  31.4  71.1  17:32 
 7563  31/03/2026 17:27:19  31.4  31.4  30.0  31.4  71.0  17:27 
 7562  31/03/2026 17:22:36  31.4  31.4  30.0  31.4  71.1  17:22 
 7561  31/03/2026 17:17:54  31.4  31.4  30.0  31.4  71.0  17:17 
 7560  31/03/2026 17:13:13  31.5  31.4  30.0  31.5  70.9  17:13 
 7559  31/03/2026 17:08:30  31.5  31.5  30.0  31.4  70.8  17:08 
 7558  31/03/2026 17:03:48  31.6  31.5  30.1  31.5  70.8  17:03 
 7557  31/03/2026 16:59:06  31.6  31.6  30.1  31.5  70.7  16:59 
 7556  31/03/2026 16:54:25  31.6  31.6  30.2  31.6  70.6  16:54 
 7555  31/03/2026 16:49:43  31.7  31.6  30.3  31.6  70.5  16:49 
 7554  31/03/2026 16:45:00  31.7  31.6  30.4  31.6  70.5  16:45 
 7553  31/03/2026 16:40:18  31.8  31.6  30.4  31.6  70.4  16:40 
 7552  31/03/2026 16:35:36  31.8  31.7  30.5  31.7  70.3  16:35 
 7551  31/03/2026 16:30:54  31.8  31.7  30.4  31.8  70.3  16:30 
 7550  31/03/2026 16:26:12  31.9  31.7  30.5  31.7  70.2  16:26 
 7549  31/03/2026 16:21:30  31.9  31.8  30.5  31.9  70.1  16:21 
 7548  31/03/2026 16:16:48  32.0  31.8  30.7  31.8  69.9  16:16 
 7547  31/03/2026 16:12:06  32.1  31.8  30.8  31.7  69.8  16:12 
 7546  31/03/2026 16:07:24  32.1  31.8  30.9  32.0  69.8  16:07 
 7545  31/03/2026 16:02:42  32.1  31.8  31.2  31.9  69.7  16:02 
 7544  31/03/2026 15:58:01  32.2  31.8  31.2  32.0  69.8  15:58 
 7543  31/03/2026 15:53:19  32.2  31.8  31.2  31.9  69.6  15:53 
 7542  31/03/2026 15:48:37  32.2  31.8  31.5  32.1  69.6  15:48 

Data every 5 minute.


ใช้เวลาประมวลผล 0.00190 วินาที